Location: Unspecified
(0.0000°N, 0.0000°E)
Time: 22:58:11
(UTC+00:00)

LES 2 - Pass Details

Date: 15 August 2024
Orbit: 2771 x 14804 km, 32.2° (Epoch: 05 September)

Event Time Altitude Azimuth Distance (km) Brightness Sun altitude
Rises 18:31:47 0° 295° (WNW) 7,440 ? -6.7°
Reaches altitude 10° 18:36:27 10° 291° (WNW) 5,955 ? -7.8°
Maximum altitude 18:50:29 61° 212° (SSW) 3,110 ? -11.2°
Drops below altitude 10° 19:08:37 10° 133° (SE) 7,468 ? -15.6°
Enters shadow 19:10:03 - 132° (SE) 7,895 ? -15.9°
